Guthrie, OK

4:42 AM CDT on June 29, 2017 (GMT -0500)
Guthrie Municipal

Weather History for KGOK - December, 2012

Change the Weather History Date:

Sunday, December 30, 2012

  Actual Average Record
Temperature  
Mean Temperature 36 °F -  
Max Temperature 45 °F 46 °F 76 °F (1951)
Min Temperature 28 °F 26 °F -2 °F (1983)
Degree Days  
Heating Degree Days 28    
Moisture  
Dew Point 20 °F    
Average Humidity 52    
Maximum Humidity 75    
Minimum Humidity 33    
Precipitation  
Precipitation 0.00 in - - ()
Sea Level Pressure  
Sea Level Pressure 30.29 in    
Wind  
Wind Speed 11 mph (South)    
Max Wind Speed 23 mph    
Max Gust Speed 33 mph    
Visibility 10 miles    
Events Rain    
Averages and records for this station are not official NWS values.
T = Trace of Precipitation, MM = Missing Value Source: NWS Daily Summary

Daily Weather History Graph

Daily Weather History Graph

Search for Another Location

Airport or City:

Trip Planner

Search our weather history database for the weather conditions in past years. The results will help you decide how hot, cold, wet, or windy it might be!

Date:

Astronomy

Dec. 30, 2012 Rise Set
Actual Time 7:39 AM CST 5:25 PM CST
Civil Twilight 7:11 AM CST 5:54 PM CST
Nautical Twilight 6:39 AM CST 6:25 PM CST
Astronomical Twilight 6:08 AM CST 6:57 PM CST
Moon 7:52 PM CST (12/30) 8:53 AM CST (12/30)
Length of Visible Light 10h 42m
Length of Day
9h 45m
Waning Gibbous, 95% of the Moon is Illuminated
Dec 30
Waning Gibbous
Jan 4
Last Quarter
Jan 11
New
Jan 18
First Quarter
Jan 26
Full

Hourly Weather History & Observations

Time (CST) Temp. Windchill Dew Point Humidity Pressure Visibility Wind Dir Wind Speed Gust Speed Precip Events Conditions
12:53 AM 28.9 °F 21.1 °F 19.9 °F 69% 30.38 in 8.0 mi South 8.1 mph - N/A   Clear
1:53 AM 28.0 °F 20.8 °F 21.0 °F 75% 30.38 in 8.0 mi SSE 6.9 mph - N/A   Clear
2:53 AM 30.0 °F 23.2 °F 21.0 °F 69% 30.39 in 9.0 mi South 6.9 mph - N/A   Clear
3:53 AM 30.0 °F 23.2 °F 21.0 °F 69% 30.36 in 9.0 mi South 6.9 mph - N/A   Clear
4:53 AM 30.9 °F 24.3 °F 21.0 °F 67% 30.35 in 10.0 mi South 6.9 mph - N/A   Clear
5:53 AM 28.9 °F 21.9 °F 21.0 °F 72% 30.35 in 10.0 mi South 6.9 mph - N/A   Clear
6:53 AM 30.9 °F 24.3 °F 21.0 °F 67% 30.37 in 10.0 mi South 6.9 mph - N/A   Clear
7:53 AM 30.0 °F 22.4 °F 21.0 °F 69% 30.38 in 10.0 mi South 8.1 mph - N/A   Clear
8:53 AM 34.0 °F 25.5 °F 21.9 °F 61% 30.37 in 9.0 mi South 11.5 mph - N/A   Clear
9:53 AM 37.9 °F 29.2 °F 21.9 °F 53% 30.35 in 10.0 mi South 15.0 mph - N/A   Clear
10:53 AM 41.0 °F 32.5 °F 21.0 °F 45% 30.36 in 10.0 mi South 17.3 mph 23.0 mph N/A   Clear
11:53 AM 43.0 °F 34.0 °F 19.9 °F 40% 30.35 in 10.0 mi SSW 21.9 mph 31.1 mph N/A   Clear
12:53 PM 45.0 °F 37.4 °F 18.0 °F 34% 30.30 in 10.0 mi South 18.4 mph 29.9 mph N/A   Clear
1:53 PM 45.0 °F 37.4 °F 17.1 °F 33% 30.25 in 10.0 mi South 18.4 mph 26.5 mph N/A   Clear
2:53 PM 43.0 °F 35.7 °F 17.1 °F 35% 30.25 in 10.0 mi South 15.0 mph 23.0 mph N/A   Clear
3:53 PM 43.0 °F 36.0 °F 17.1 °F 35% 30.24 in 10.0 mi South 13.8 mph - 0.00 in   Clear
4:53 PM 42.1 °F 34.5 °F 17.1 °F 37% 30.21 in 10.0 mi South 15.0 mph - N/A   Clear
5:53 PM 41.0 °F 33.5 °F 18.0 °F 40% 30.21 in 10.0 mi South 13.8 mph - 0.00 in Rain Light Rain
6:53 PM 41.0 °F 33.5 °F 19.0 °F 41% 30.21 in 10.0 mi South 13.8 mph 20.7 mph 0.00 in   Overcast
7:53 PM 39.9 °F 31.1 °F 19.9 °F 45% 30.20 in 10.0 mi South 17.3 mph 21.9 mph N/A   Mostly Cloudy
8:53 PM 41.0 °F 31.1 °F 21.0 °F 45% 30.17 in 10.0 mi South 23.0 mph 33.4 mph N/A   Clear
9:53 PM 41.0 °F 32.2 °F 21.0 °F 45% 30.16 in 10.0 mi South 18.4 mph 25.3 mph N/A   Mostly Cloudy
10:53 PM 41.0 °F 33.9 °F 21.9 °F 47% 30.16 in 10.0 mi South 12.7 mph 23.0 mph N/A   Mostly Cloudy
11:53 PM 41.0 °F 33.9 °F 24.1 °F 51% 30.16 in 10.0 mi South 12.7 mph 24.2 mph N/A   Overcast